Regional Weather Roundup
Issued by NWS

Home | Current Version | Previous Version | Graphics & Text | Print | Product List | Glossary On
Versions: 1 2 3 4 5 6 7 8 9 10 11 12 13 14 15 16 17 18 19 20 21 22 23 24 25 26 27 28 29 30 31 32 33 34 35 36 37 38 39 40 41 42 43 44 45 46 47 48 49 50
000
ASUS43 KLSX 232107
RWRMO

WEATHER SUMMARY FOR MISSOURI
NATIONAL WEATHER SERVICE SPRINGFIELD MO
400 PM CDT WED APR 23 2014

NOTE: "FAIR" INDICATES FEW OR NO CLOUDS BELOW 12,000 FEET WITH NO
       SIGNIFICANT WEATHER AND/OR OBSTRUCTIONS TO VISIBILITY.
       CURRENT SKY AND/OR WEATHER CONDITIONS ARE NOT AVAILABLE FOR
       CHILLICOTHE AND FARMINGTON.

MOZ001>031-035>038-043-044-053-054-232200-
...NORTHERN AND WESTERN MISSOURI...

CITY           SKY/WX    TMP DP  RH WIND       PRES   REMARKS
KANSAS CTY INT PTSUNNY   72  41  32 SE21      29.82F
KANSAS C DTWN  MOSUNNY   73  42  32 S16G24    29.82F
LEE`S SUMMIT   MOSUNNY   72  41  32 SE16G25   29.84F
ST JOSEPH      CLOUDY    68  41  37 SE16      29.80F
CHILLICOTHE      N/A     64  41  42 E12       29.90F
KIRKSVILLE     CLOUDY    60  38  43 E17G24    29.97F

$$
MOZ066>068-077>081-088>096-101>105-232200-
...SOUTHWEST MISSOURI...

CITY           SKY/WX    TMP DP  RH WIND       PRES   REMARKS
SPRINGFIELD    SUNNY     76  42  29 SE16      29.88F
JOPLIN         SUNNY     80  47  31 S14       29.82F

$$
MOZ032>034-039>042-045>050-055>058-069>072-232200-
...CENTRAL MISSOURI...

CITY           SKY/WX    TMP DP  RH WIND       PRES   REMARKS
COLUMBIA       MOSUNNY   67  38  34 SE14      29.94F
JEFFERSON CITY CLOUDY    69  33  26 E15       29.94F
ROLLA          CLOUDY    69  35  28 E8        29.93F
SEDALIA        MOSUNNY   71  40  32 E20       29.90F
WHITEMAN AFB   MOSUNNY   70  34  26 SE15      29.86F
OSAGE BEACH    CLOUDY    72  36  26 E7        29.93F

$$
MOZ051-052-059>065-232200-
...EAST CENTRAL MISSOURI...

CITY           SKY/WX    TMP DP  RH WIND       PRES   REMARKS
ST LOUIS INTL  CLOUDY    64  35  34 E13G20    30.02F
SPIRIT OF STL  CLOUDY    62  36  37 SE7       30.01F
ST CHARLES     CLOUDY    62  34  35 SE12      30.02F

$$
MOZ072>076-082>087-097>100-106>115-232200-
...SOUTH CENTRAL AND SOUTHEAST MISSOURI...

CITY           SKY/WX    TMP DP  RH WIND       PRES   REMARKS
CAPE GIRARDEAU SUNNY     70  39  32 VRB6      30.00F
FARMINGTON     SUNNY     70  37  30 E10G17    30.02F
POPLAR BLUFF   SUNNY     71  38  29 E7        29.97F
WEST PLAINS    SUNNY     73  37  27 SE9       29.96F

$$



USA.gov is the U.S. government's official web portal to all federal, state and local government web resources and services.